Time,TemperatureF,DewpointF,PressureIn,WindDirection,WindDirectionDegrees,WindSpeedMPH,WindSpeedGustMPH,Humidity,HourlyPrecipIn,Conditions,Clouds,dailyrainin,SoftwareType,DateUTC
2013-03-08 06:45:00,24.6,22.9,30.39,SE,130,0.0,1.0,93,0.00,,,0.00,Wunderground v.1.15,2013-03-08 11:45:00,
2013-03-08 06:50:00,24.6,22.9,30.40,SE,129,0.0,1.0,93,0.00,,,0.00,Wunderground v.1.15,2013-03-08 11:50:00,
2013-03-08 06:55:00,24.8,23.1,30.40,East,96,0.0,1.0,93,0.00,,,0.00,Wunderground v.1.15,2013-03-08 11:55:00,
2013-03-08 07:00:00,25.1,23.4,30.40,ENE,68,1.0,1.0,93,0.00,,,0.00,Wunderground v.1.15,2013-03-08 12:00:00,
2013-03-08 07:10:00,25.5,23.8,30.41,NNW,346,1.0,1.0,93,0.00,,,0.00,Wunderground v.1.15,2013-03-08 12:10:00,
2013-03-08 07:20:00,25.7,24.0,30.41,NNE,18,1.0,1.0,93,0.00,,,0.00,Wunderground v.1.15,2013-03-08 12:20:00,
2013-03-08 07:25:00,25.7,24.0,30.41,NNE,18,1.0,1.0,93,0.00,,,0.00,Wunderground v.1.15,2013-03-08 12:25:00,
2013-03-08 07:30:00,25.8,23.8,30.41,NNE,18,0.0,0.0,92,0.00,,,0.00,Wunderground v.1.15,2013-03-08 12:30:00,
2013-03-08 07:35:00,25.9,23.9,30.42,North,3,0.0,1.0,92,0.00,,,0.00,Wunderground v.1.15,2013-03-08 12:35:00,
2013-03-08 07:40:00,26.3,24.3,30.41,NNE,18,1.0,1.0,92,0.00,,,0.00,Wunderground v.1.15,2013-03-08 12:40:00,
2013-03-08 07:45:00,26.7,24.7,30.41,NNE,16,1.0,2.0,92,0.00,,,0.00,Wunderground v.1.15,2013-03-08 12:45:00,
2013-03-08 07:50:00,27.1,24.8,30.41,NNE,32,2.0,2.0,91,0.00,,,0.00,Wunderground v.1.15,2013-03-08 12:50:00,
2013-03-08 08:00:00,28.0,25.2,30.41,NE,34,2.0,3.0,89,0.00,,,0.00,Wunderground v.1.15,2013-03-08 13:00:00,
2013-03-08 08:10:00,28.6,25.2,30.42,NNE,30,4.0,5.0,87,0.00,,,0.00,Wunderground v.1.15,2013-03-08 13:10:00,
2013-03-08 08:15:00,28.8,25.1,30.42,NNW,327,4.0,5.0,86,0.00,,,0.00,Wunderground v.1.15,2013-03-08 13:15:00,
2013-03-08 08:20:00,29.4,25.7,30.42,NE,37,3.0,4.0,86,0.00,,,0.00,Wunderground v.1.15,2013-03-08 13:20:00,
2013-03-08 08:25:00,29.5,25.5,30.42,NE,55,3.0,5.0,85,0.00,,,0.00,Wunderground v.1.15,2013-03-08 13:25:00,
2013-03-08 08:35:00,29.7,25.7,30.42,NE,34,2.0,6.0,85,0.00,,,0.00,Wunderground v.1.15,2013-03-08 13:35:00,
2013-03-08 08:40:00,29.7,25.7,30.43,NE,42,3.0,3.0,85,0.00,,,0.00,Wunderground v.1.15,2013-03-08 13:40:00,
2013-03-08 08:45:00,29.8,25.8,30.43,NNE,13,4.0,4.0,85,0.00,,,0.00,Wunderground v.1.15,2013-03-08 13:45:00,
2013-03-08 08:50:00,29.9,25.9,30.43,NE,46,5.0,6.0,85,0.00,,,0.00,Wunderground v.1.15,2013-03-08 13:50:00,
2013-03-08 08:55:00,29.9,25.9,30.43,NE,34,6.0,6.0,85,0.00,,,0.00,Wunderground v.1.15,2013-03-08 13:55:00,
2013-03-08 09:00:00,30.0,26.0,30.43,NNE,20,5.0,7.0,85,0.00,,,0.00,Wunderground v.1.15,2013-03-08 14:00:00,
2013-03-08 09:10:00,30.2,26.2,30.44,NNE,25,5.0,5.0,85,0.00,,,0.00,Wunderground v.1.15,2013-03-08 14:10:00,
2013-03-08 09:15:00,30.1,26.1,30.43,NNE,18,5.0,5.0,85,0.00,,,0.00,Wunderground v.1.15,2013-03-08 14:15:00,
2013-03-08 09:20:00,30.2,26.2,30.44,NNE,16,5.0,6.0,85,0.00,,,0.00,Wunderground v.1.15,2013-03-08 14:20:00,
2013-03-08 09:25:00,30.3,26.3,30.44,East,82,5.0,6.0,85,0.00,,,0.00,Wunderground v.1.15,2013-03-08 14:25:00,
2013-03-08 09:30:00,30.4,26.4,30.44,NE,43,5.0,6.0,85,0.00,,,0.00,Wunderground v.1.15,2013-03-08 14:30:00,
2013-03-08 09:35:00,30.6,26.6,30.44,NNW,332,4.0,6.0,85,0.00,,,0.00,Wunderground v.1.15,2013-03-08 14:35:00,
2013-03-08 09:40:00,30.8,26.8,30.45,NNE,30,3.0,5.0,85,0.00,,,0.00,Wunderground v.1.15,2013-03-08 14:40:00,
2013-03-08 09:50:00,30.9,26.9,30.44,ENE,60,4.0,4.0,85,0.00,,,0.00,Wunderground v.1.15,2013-03-08 14:50:00,
2013-03-08 09:55:00,31.0,26.7,30.44,NE,42,3.0,4.0,84,0.00,,,0.00,Wunderground v.1.15,2013-03-08 14:55:00,
2013-03-08 10:00:00,31.0,26.7,30.45,NE,51,3.0,4.0,84,0.00,,,0.00,Wunderground v.1.15,2013-03-08 15:00:00,
2013-03-08 10:10:00,31.2,26.9,30.45,NNE,18,4.0,4.0,84,0.00,,,0.00,Wunderground v.1.15,2013-03-08 15:10:00,
2013-03-08 10:15:00,31.3,27.3,30.45,NNE,25,4.0,7.0,85,0.00,,,0.00,Wunderground v.1.15,2013-03-08 15:15:00,
2013-03-08 10:25:00,31.4,27.1,30.45,NNE,27,4.0,5.0,84,0.00,,,0.00,Wunderground v.1.15,2013-03-08 15:25:00,
2013-03-08 10:30:00,31.4,26.8,30.45,NNE,20,5.0,5.0,83,0.00,,,0.00,Wunderground v.1.15,2013-03-08 15:30:00,
2013-03-08 10:35:00,31.5,26.9,30.45,NE,43,5.0,5.0,83,0.00,,,0.00,Wunderground v.1.15,2013-03-08 15:35:00,
2013-03-08 10:40:00,31.7,27.1,30.45,NE,46,5.0,5.0,83,0.00,,,0.00,Wunderground v.1.15,2013-03-08 15:40:00,
2013-03-08 10:45:00,31.8,27.2,30.45,North,1,4.0,5.0,83,0.00,,,0.00,Wunderground v.1.15,2013-03-08 15:45:00,
2013-03-08 10:55:00,32.1,27.2,30.44,North,9,5.0,7.0,82,0.00,,,0.00,Wunderground v.1.15,2013-03-08 15:55:00,
2013-03-08 11:00:00,32.5,27.9,30.44,NE,34,3.0,3.0,83,0.00,,,0.00,Wunderground v.1.15,2013-03-08 16:00:00,
2013-03-08 11:10:00,32.9,28.0,30.44,NE,51,4.0,6.0,82,0.00,,,0.00,Wunderground v.1.15,2013-03-08 16:10:00,
2013-03-08 11:15:00,33.2,28.0,30.44,NNE,19,5.0,6.0,81,0.00,,,0.00,Wunderground v.1.15,2013-03-08 16:15:00,
2013-03-08 11:20:00,33.4,28.2,30.44,NNE,25,4.0,5.0,81,0.00,,,0.00,Wunderground v.1.15,2013-03-08 16:20:00,
2013-03-08 11:30:00,33.5,28.0,30.44,West,266,3.0,3.0,80,0.00,,,0.00,Wunderground v.1.15,2013-03-08 16:30:00,
2013-03-08 11:35:00,33.8,28.3,30.44,NNW,348,3.0,4.0,80,0.00,,,0.00,Wunderground v.1.15,2013-03-08 16:35:00,
2013-03-08 11:40:00,34.3,28.5,30.44,NE,46,4.0,8.0,79,0.00,,,0.00,Wunderground v.1.15,2013-03-08 16:40:00,
2013-03-08 11:45:00,34.7,28.9,30.43,NNE,30,5.0,10.0,79,0.00,,,0.00,Wunderground v.1.15,2013-03-08 16:45:00,
2013-03-08 11:50:00,34.6,28.8,30.44,WNW,287,5.0,5.0,79,0.00,,,0.00,Wunderground v.1.15,2013-03-08 16:50:00,
2013-03-08 12:00:00,35.3,29.1,30.43,North,11,2.0,2.0,78,0.00,,,0.00,Wunderground v.1.15,2013-03-08 17:00:00,
2013-03-08 12:10:00,36.2,30.3,30.43,NE,37,3.0,6.0,79,0.00,,,0.00,Wunderground v.1.15,2013-03-08 17:10:00,
2013-03-08 12:15:00,36.7,29.8,30.42,NE,36,3.0,6.0,76,0.00,,,0.00,Wunderground v.1.15,2013-03-08 17:15:00,
2013-03-08 12:25:00,36.3,28.8,30.42,WSW,257,3.0,3.0,74,0.00,,,0.00,Wunderground v.1.15,2013-03-08 17:25:00,
2013-03-08 12:30:00,36.7,30.2,30.42,NNE,27,3.0,3.0,77,0.00,,,0.00,Wunderground v.1.15,2013-03-08 17:30:00,
2013-03-08 12:35:00,37.5,30.3,30.42,NNW,333,3.0,3.0,75,0.00,,,0.00,Wunderground v.1.15,2013-03-08 17:35:00,
2013-03-08 12:40:00,37.4,29.2,30.42,NW,326,3.0,3.0,72,0.00,,,0.00,Wunderground v.1.15,2013-03-08 17:40:00,
2013-03-08 12:45:00,37.5,30.3,30.42,North,11,2.0,4.0,75,0.00,,,0.00,Wunderground v.1.15,2013-03-08 17:45:00,
2013-03-08 12:55:00,37.7,29.5,30.42,NNE,20,2.0,3.0,72,0.00,,,0.00,Wunderground v.1.15,2013-03-08 17:55:00,
2013-03-08 13:00:00,38.0,30.4,30.41,NW,311,2.0,2.0,74,0.00,,,0.00,Wunderground v.1.15,2013-03-08 18:00:00,
2013-03-08 13:10:00,38.4,30.2,30.41,East,96,3.0,3.0,72,0.00,,,0.00,Wunderground v.1.15,2013-03-08 18:10:00,
2013-03-08 13:20:00,38.4,30.8,30.41,NNE,15,4.0,8.0,74,0.00,,,0.00,Wunderground v.1.15,2013-03-08 18:20:00,
2013-03-08 13:25:00,38.0,29.8,30.40,North,11,4.0,11.0,72,0.00,,,0.00,Wunderground v.1.15,2013-03-08 18:25:00,
2013-03-08 13:30:00,38.0,30.1,30.40,NE,49,5.0,5.0,73,0.00,,,0.00,Wunderground v.1.15,2013-03-08 18:30:00,
2013-03-08 13:35:00,38.5,31.3,30.40,NW,305,4.0,5.0,75,0.00,,,0.00,Wunderground v.1.15,2013-03-08 18:35:00,
2013-03-08 13:40:00,38.5,30.6,30.40,West,278,2.0,2.0,73,0.00,,,0.00,Wunderground v.1.15,2013-03-08 18:40:00,
2013-03-08 13:45:00,38.8,31.2,30.40,NE,34,2.0,2.0,74,0.00,,,0.00,Wunderground v.1.15,2013-03-08 18:45:00,
2013-03-08 13:55:00,38.5,29.9,30.39,NNE,15,5.0,10.0,71,0.00,,,0.00,Wunderground v.1.15,2013-03-08 18:55:00,
2013-03-08 14:00:00,38.4,30.2,30.39,WNW,301,5.0,5.0,72,0.00,,,0.00,Wunderground v.1.15,2013-03-08 19:00:00,
2013-03-08 14:10:00,39.0,30.4,30.39,WNW,291,3.0,4.0,71,0.00,,,0.00,Wunderground v.1.15,2013-03-08 19:10:00,
2013-03-08 14:15:00,39.1,30.8,30.39,North,351,3.0,4.0,72,0.00,,,0.00,Wunderground v.1.15,2013-03-08 19:15:00,
2013-03-08 14:20:00,39.4,30.8,30.38,North,8,3.0,4.0,71,0.00,,,0.00,Wunderground v.1.15,2013-03-08 19:20:00,
2013-03-08 14:25:00,39.5,30.5,30.38,North,5,3.0,7.0,70,0.00,,,0.00,Wunderground v.1.15,2013-03-08 19:25:00,
2013-03-08 14:35:00,39.6,30.3,30.39,NNE,31,4.0,4.0,69,0.00,,,0.00,Wunderground v.1.15,2013-03-08 19:35:00,
2013-03-08 14:40:00,39.3,30.3,30.39,NNW,339,3.0,5.0,70,0.00,,,0.00,Wunderground v.1.15,2013-03-08 19:40:00,
2013-03-08 14:45:00,39.4,30.8,30.39,North,11,3.0,5.0,71,0.00,,,0.00,Wunderground v.1.15,2013-03-08 19:45:00,
2013-03-08 14:50:00,39.4,31.1,30.39,North,357,3.0,3.0,72,0.00,,,0.00,Wunderground v.1.15,2013-03-08 19:50:00,
2013-03-08 14:55:00,39.5,30.9,30.39,NNE,30,3.0,3.0,71,0.00,,,0.00,Wunderground v.1.15,2013-03-08 19:55:00,
2013-03-08 15:00:00,39.3,30.7,30.39,North,352,3.0,3.0,71,0.00,,,0.00,Wunderground v.1.15,2013-03-08 20:00:00,
2013-03-08 15:10:00,40.1,31.1,30.39,West,278,2.0,5.0,70,0.00,,,0.00,Wunderground v.1.15,2013-03-08 20:10:00,
2013-03-08 15:15:00,40.1,30.7,30.39,SSW,194,2.0,5.0,69,0.00,,,0.00,Wunderground v.1.15,2013-03-08 20:15:00,
2013-03-08 15:20:00,40.1,30.7,30.39,NNE,26,2.0,9.0,69,0.00,,,0.00,Wunderground v.1.15,2013-03-08 20:20:00,
2013-03-08 15:25:00,40.2,31.2,30.39,West,281,2.0,9.0,70,0.00,,,0.00,Wunderground v.1.15,2013-03-08 20:25:00,
2013-03-08 15:30:00,40.6,31.2,30.39,West,262,3.0,4.0,69,0.00,,,0.00,Wunderground v.1.15,2013-03-08 20:30:00,
2013-03-08 15:35:00,41.2,31.4,30.38,SSW,201,3.0,4.0,68,0.00,,,0.00,Wunderground v.1.15,2013-03-08 20:35:00,
2013-03-08 15:45:00,41.4,31.3,30.39,NNW,332,5.0,5.0,67,0.00,,,0.00,Wunderground v.1.15,2013-03-08 20:45:00,
2013-03-08 15:50:00,40.8,31.1,30.39,NNE,29,5.0,6.0,68,0.00,,,0.00,Wunderground v.1.15,2013-03-08 20:50:00,
2013-03-08 15:55:00,40.7,31.0,30.39,NE,49,5.0,6.0,68,0.00,,,0.00,Wunderground v.1.15,2013-03-08 20:55:00,
2013-03-08 16:00:00,40.7,31.0,30.39,NE,49,4.0,4.0,68,0.00,,,0.00,Wunderground v.1.15,2013-03-08 21:00:00,
2013-03-08 16:10:00,41.5,30.2,30.39,NW,312,4.0,4.0,64,0.00,,,0.00,Wunderground v.1.15,2013-03-08 21:10:00,
2013-03-08 16:20:00,41.7,30.8,30.39,NE,36,3.0,7.0,65,0.00,,,0.00,Wunderground v.1.15,2013-03-08 21:20:00,
2013-03-08 16:25:00,41.7,30.4,30.39,NNE,18,3.0,7.0,64,0.00,,,0.00,Wunderground v.1.15,2013-03-08 21:25:00,
2013-03-08 16:30:00,42.3,31.0,30.39,NNE,18,4.0,7.0,64,0.00,,,0.00,Wunderground v.1.15,2013-03-08 21:30:00,
2013-03-08 16:35:00,41.8,30.5,30.38,NNE,32,4.0,8.0,64,0.00,,,0.00,Wunderground v.1.15,2013-03-08 21:35:00,
2013-03-08 16:40:00,41.7,30.8,30.39,NNE,27,5.0,5.0,65,0.00,,,0.00,Wunderground v.1.15,2013-03-08 21:40:00,
2013-03-08 16:50:00,41.1,30.2,30.39,North,354,6.0,6.0,65,0.00,,,0.00,Wunderground v.1.15,2013-03-08 21:50:00,
2013-03-08 16:55:00,41.1,30.6,30.39,NNE,13,5.0,6.0,66,0.00,,,0.00,Wunderground v.1.15,2013-03-08 21:55:00,
2013-03-08 17:00:00,40.6,30.9,30.39,North,1,5.0,9.0,68,0.00,,,0.00,Wunderground v.1.15,2013-03-08 22:00:00,
2013-03-08 17:10:00,39.3,30.0,30.39,NE,46,5.0,8.0,69,0.00,,,0.00,Wunderground v.1.15,2013-03-08 22:10:00,
2013-03-08 17:15:00,38.9,30.3,30.39,NE,34,5.0,8.0,71,0.00,,,0.00,Wunderground v.1.15,2013-03-08 22:15:00,
2013-03-08 17:20:00,38.7,29.8,30.39,NNE,18,6.0,7.0,70,0.00,,,0.00,Wunderground v.1.15,2013-03-08 22:20:00,
2013-03-08 17:30:00,38.3,29.7,30.40,NNE,18,6.0,6.0,71,0.00,,,0.00,Wunderground v.1.15,2013-03-08 22:30:00,
2013-03-08 17:35:00,38.0,29.4,30.40,NNE,32,5.0,6.0,71,0.00,,,0.00,Wunderground v.1.15,2013-03-08 22:35:00,
2013-03-08 17:40:00,37.6,29.0,30.41,NNE,26,5.0,5.0,71,0.00,,,0.00,Wunderground v.1.15,2013-03-08 22:40:00,
2013-03-08 17:45:00,37.3,29.1,30.40,NE,42,4.0,6.0,72,0.00,,,0.00,Wunderground v.1.15,2013-03-08 22:45:00,
2013-03-08 17:50:00,37.1,28.9,30.40,NE,36,5.0,6.0,72,0.00,,,0.00,Wunderground v.1.15,2013-03-08 22:50:00,
2013-03-08 17:55:00,36.7,28.5,30.40,NE,37,5.0,6.0,72,0.00,,,0.00,Wunderground v.1.15,2013-03-08 22:55:00,
2013-03-08 18:05:00,36.2,28.4,30.41,NNE,25,4.0,5.0,73,0.00,,,0.00,Wunderground v.1.15,2013-03-08 23:05:00,
2013-03-08 18:10:00,35.8,28.0,30.41,North,11,4.0,4.0,73,0.00,,,0.00,Wunderground v.1.15,2013-03-08 23:10:00,
2013-03-08 18:15:00,35.7,27.9,30.41,NNE,23,4.0,4.0,73,0.00,,,0.00,Wunderground v.1.15,2013-03-08 23:15:00,
2013-03-08 18:20:00,35.5,28.0,30.40,NNE,26,3.0,3.0,74,0.00,,,0.00,Wunderground v.1.15,2013-03-08 23:20:00,
2013-03-08 18:30:00,34.2,27.4,30.40,NNE,25,2.0,2.0,76,0.00,,,0.00,Wunderground v.1.15,2013-03-08 23:30:00,
2013-03-08 18:35:00,33.6,27.2,30.40,NNE,25,1.0,2.0,77,0.00,,,0.00,Wunderground v.1.15,2013-03-08 23:35:00,
2013-03-08 18:40:00,32.9,26.8,30.40,NNE,25,1.0,1.0,78,0.00,,,0.00,Wunderground v.1.15,2013-03-08 23:40:00,
2013-03-08 18:45:00,32.2,26.4,30.41,NNE,25,1.0,1.0,79,0.00,,,0.00,Wunderground v.1.15,2013-03-08 23:45:00,
2013-03-08 18:50:00,31.7,26.2,30.41,NNE,25,1.0,1.0,80,0.00,,,0.00,Wunderground v.1.15,2013-03-08 23:50:00,
2013-03-08 18:55:00,31.1,26.0,30.41,NNE,25,1.0,2.0,81,0.00,,,0.00,Wunderground v.1.15,2013-03-08 23:55:00,
2013-03-08 19:05:00,30.5,26.0,30.41,NNE,25,1.0,2.0,83,0.00,,,0.00,Wunderground v.1.15,2013-03-09 00:05:00,
2013-03-08 19:10:00,30.1,25.8,30.41,NNE,25,1.0,1.0,84,0.00,,,0.00,Wunderground v.1.15,2013-03-09 00:10:00,
2013-03-08 19:15:00,30.0,25.8,30.41,NNE,25,1.0,1.0,84,0.00,,,0.00,Wunderground v.1.15,2013-03-09 00:15:00,
2013-03-08 19:20:00,29.9,25.9,30.41,NNE,25,1.0,2.0,85,0.00,,,0.00,Wunderground v.1.15,2013-03-09 00:20:00,
2013-03-08 19:25:00,29.9,26.2,30.40,NNE,25,2.0,2.0,86,0.00,,,0.00,Wunderground v.1.15,2013-03-09 00:25:00,
2013-03-08 19:30:00,30.4,26.7,30.41,NE,40,1.0,1.0,86,0.00,,,0.00,Wunderground v.1.15,2013-03-09 00:30:00,
2013-03-08 19:40:00,30.7,26.4,30.41,NE,39,0.0,1.0,84,0.00,,,0.00,Wunderground v.1.15,2013-03-09 00:40:00,
2013-03-08 19:45:00,30.5,26.5,30.41,NE,39,0.0,1.0,85,0.00,,,0.00,Wunderground v.1.15,2013-03-09 00:45:00,
2013-03-08 19:50:00,30.4,26.7,30.41,NE,40,0.0,0.0,86,0.00,,,0.00,Wunderground v.1.15,2013-03-09 00:50:00,
2013-03-08 19:55:00,30.3,26.6,30.41,NE,40,0.0,0.0,86,0.00,,,0.00,Wunderground v.1.15,2013-03-09 00:55:00,
2013-03-08 20:00:00,30.1,26.1,30.41,NE,39,0.0,0.0,85,0.00,,,0.00,Wunderground v.1.15,2013-03-09 01:00:00,
2013-03-08 20:10:00,29.6,25.9,30.41,NE,40,0.0,0.0,86,0.00,,,0.00,Wunderground v.1.15,2013-03-09 01:10:00,
2013-03-08 20:15:00,29.2,25.5,30.41,NE,40,0.0,0.0,86,0.00,,,0.00,Wunderground v.1.15,2013-03-09 01:15:00,
2013-03-08 20:20:00,28.9,25.2,30.41,NE,40,0.0,0.0,86,0.00,,,0.00,Wunderground v.1.15,2013-03-09 01:20:00,
2013-03-08 20:25:00,28.7,25.3,30.40,NE,39,0.0,0.0,87,0.00,,,0.00,Wunderground v.1.15,2013-03-09 01:25:00,
2013-03-08 20:30:00,28.6,25.2,30.41,NE,39,0.0,0.0,87,0.00,,,0.00,Wunderground v.1.15,2013-03-09 01:30:00,
2013-03-08 20:35:00,28.4,25.0,30.41,NE,40,0.0,0.0,87,0.00,,,0.00,Wunderground v.1.15,2013-03-09 01:35:00,
2013-03-08 20:40:00,28.3,25.2,30.41,NE,40,0.0,0.0,88,0.00,,,0.00,Wunderground v.1.15,2013-03-09 01:40:00,
2013-03-08 20:50:00,28.2,25.1,30.41,NE,39,0.0,0.0,88,0.00,,,0.00,Wunderground v.1.15,2013-03-09 01:50:00,
2013-03-08 20:55:00,28.3,25.5,30.41,NE,40,0.0,0.0,89,0.00,,,0.00,Wunderground v.1.15,2013-03-09 01:55:00,
2013-03-08 21:00:00,28.4,25.6,30.41,NE,39,0.0,0.0,89,0.00,,,0.00,Wunderground v.1.15,2013-03-09 02:00:00,
2013-03-08 21:10:00,28.5,25.7,30.41,NE,40,0.0,0.0,89,0.00,,,0.00,Wunderground v.1.15,2013-03-09 02:10:00,
2013-03-08 21:15:00,28.3,25.5,30.41,NE,40,0.0,0.0,89,0.00,,,0.00,Wunderground v.1.15,2013-03-09 02:15:00,
2013-03-08 21:25:00,28.0,25.2,30.41,NE,39,0.0,0.0,89,0.00,,,0.00,Wunderground v.1.15,2013-03-09 02:25:00,
2013-03-08 21:30:00,27.7,24.9,30.41,NE,40,0.0,0.0,89,0.00,,,0.00,Wunderground v.1.15,2013-03-09 02:30:00,
2013-03-08 21:35:00,27.3,24.5,30.41,NE,40,0.0,0.0,89,0.00,,,0.00,Wunderground v.1.15,2013-03-09 02:35:00,
2013-03-08 21:40:00,27.1,24.3,30.42,NE,39,0.0,0.0,89,0.00,,,0.00,Wunderground v.1.15,2013-03-09 02:40:00,
2013-03-08 21:45:00,26.9,24.1,30.42,NE,40,0.0,0.0,89,0.00,,,0.00,Wunderground v.1.15,2013-03-09 02:45:00,
2013-03-08 21:50:00,26.7,23.9,30.42,NE,40,0.0,0.0,89,0.00,,,0.00,Wunderground v.1.15,2013-03-09 02:50:00,
2013-03-08 21:55:00,26.7,24.2,30.42,NE,39,0.0,0.0,90,0.00,,,0.00,Wunderground v.1.15,2013-03-09 02:55:00,
2013-03-08 22:05:00,26.6,24.1,30.42,NE,40,0.0,0.0,90,0.00,,,0.00,Wunderground v.1.15,2013-03-09 03:05:00,
2013-03-08 22:10:00,26.3,23.8,30.42,NE,40,0.0,0.0,90,0.00,,,0.00,Wunderground v.1.15,2013-03-09 03:10:00,
2013-03-08 22:15:00,26.1,23.6,30.42,NE,40,0.0,0.0,90,0.00,,,0.00,Wunderground v.1.15,2013-03-09 03:15:00,
2013-03-08 22:20:00,26.1,23.6,30.42,NE,40,0.0,0.0,90,0.00,,,0.00,Wunderground v.1.15,2013-03-09 03:20:00,
2013-03-08 22:25:00,25.9,23.6,30.42,NE,40,0.0,0.0,91,0.00,,,0.00,Wunderground v.1.15,2013-03-09 03:25:00,
2013-03-08 22:35:00,25.4,22.9,30.42,NE,40,0.0,0.0,90,0.00,,,0.00,Wunderground v.1.15,2013-03-09 03:35:00,
2013-03-08 22:40:00,25.1,22.6,30.42,NE,40,0.0,0.0,90,0.00,,,0.00,Wunderground v.1.15,2013-03-09 03:40:00,
2013-03-08 22:45:00,25.0,22.7,30.42,NE,39,0.0,0.0,91,0.00,,,0.00,Wunderground v.1.15,2013-03-09 03:45:00,
2013-03-08 22:50:00,24.8,22.5,30.42,NE,39,0.0,0.0,91,0.00,,,0.00,Wunderground v.1.15,2013-03-09 03:50:00,
2013-03-08 22:55:00,24.8,22.5,30.42,NE,40,0.0,0.0,91,0.00,,,0.00,Wunderground v.1.15,2013-03-09 03:55:00,
2013-03-08 23:05:00,24.9,22.9,30.42,NE,39,0.0,0.0,92,0.00,,,0.00,Wunderground v.1.15,2013-03-09 04:05:00,
2013-03-08 23:10:00,24.7,22.7,30.43,NE,40,0.0,0.0,92,0.00,,,0.00,Wunderground v.1.15,2013-03-09 04:10:00,
2013-03-08 23:15:00,24.5,22.5,30.43,NE,40,0.0,0.0,92,0.00,,,0.00,Wunderground v.1.15,2013-03-09 04:15:00,
2013-03-08 23:20:00,24.4,22.4,30.43,NE,39,0.0,0.0,92,0.00,,,0.00,Wunderground v.1.15,2013-03-09 04:20:00,
2013-03-08 23:30:00,24.5,22.5,30.43,NE,39,0.0,0.0,92,0.00,,,0.00,Wunderground v.1.15,2013-03-09 04:30:00,
2013-03-08 23:35:00,24.7,23.0,30.43,NE,40,0.0,0.0,93,0.00,,,0.00,Wunderground v.1.15,2013-03-09 04:35:00,
2013-03-08 23:40:00,24.6,22.9,30.43,NE,40,0.0,0.0,93,0.00,,,0.00,Wunderground v.1.15,2013-03-09 04:40:00,
2013-03-08 23:45:00,24.5,22.8,30.43,NE,40,0.0,0.0,93,0.00,,,0.00,Wunderground v.1.15,2013-03-09 04:45:00,
2013-03-08 23:50:00,24.4,22.7,30.43,NE,40,0.0,0.0,93,0.00,,,0.00,Wunderground v.1.15,2013-03-09 04:50:00,
2013-03-08 23:55:00,24.3,22.6,30.43,NE,40,0.0,0.0,93,0.00,,,0.00,Wunderground v.1.15,2013-03-09 04:55:00,